Flag for U.S.A. Weather past 2 weeks in Miami, Florida, U.S.A.

Now
73 °F

Scattered clouds.


Feels Like: 77 °F
Forecast: 60 / 74 °F
Wind: 7 mph from North

Location: Miami International Airport

Current Time: Jan 30, 2015 at 12:35:08 PM

Latest Report: Jan 30, 2015 at 11:53 AM


Visibility: 10 mi

Pressure: 30.21 "Hg

Humidity: 46%

Dew point: 51 °F

Location of MiamiLocation

Historic Weather in Miami — Graph

°F

Miami temperature yesterday

Maximum temperature yesterday: 72 °F (at 12:53 PM)
Minimum temperature yesterday: 54 °F (at 4:53 AM)
Average temperature yesterday: 64 °F

Past Weeks' High & Low Weather Summary

 TemperatureHumidityPressure
High81 °F (Jan 21, 1:53 PM)90% (Jan 18, 6:53 AM)30.27 "Hg (Jan 18, 6:53 AM)
Low53 °F (Jan 25, 5:53 AM)23% (Jan 28, 3:53 PM)29.86 "Hg (Jan 26, 2:53 PM)
Average68 °F65%30.08 "Hg
* Reported Jan 15 10:53 AM — Jan 30 10:53 AM, Miami, Weather by CustomWeather, © 2014

Note: Actual official high and low records may vary slightly from our data, if they occured in-between our weather recording intervals... More about our weather records

Advertising

Miami weather history for previous 24 hours

 ConditionsComfort  
Time TempWeatherWind HumidityBarometerVisibility
10:53 AM
Jan 30
71 °FPassing clouds.10 mph49%30.23 "Hg10 mi
9:53 AM69 °FPassing clouds.8 mph53%30.24 "Hg10 mi
8:53 AM66 °FScattered clouds.5 mph59%30.22 "Hg10 mi
7:53 AM62 °FPartly sunny.7 mph70%30.21 "Hg10 mi
6:53 AM59 °FPartly cloudy.5 mph81%30.19 "Hg10 mi
5:53 AM60 °FPassing clouds.3 mph78%30.17 "Hg10 mi
4:53 AM61 °FPassing clouds.3 mph78%30.16 "Hg10 mi
3:53 AM61 °FPassing clouds.3 mph78%30.17 "Hg10 mi
2:53 AM61 °FPassing clouds.6 mph72%30.17 "Hg10 mi
1:53 AM60 °FPassing clouds.No wind75%30.19 "Hg10 mi
12:53 AM61 °FPassing clouds.No wind72%30.20 "Hg10 mi
11:53 PM
Jan 29
63 °FPassing clouds.3 mph68%30.21 "Hg10 mi
10:53 PM65 °FPassing clouds.No wind66%30.23 "Hg10 mi
9:53 PM66 °FPassing clouds.3 mph59%30.24 "Hg10 mi
8:53 PM67 °FPassing clouds.8 mph55%30.22 "Hg10 mi
7:53 PM67 °FPassing clouds.5 mph57%30.22 "Hg10 mi
6:53 PM66 °FClear.10 mph59%30.20 "Hg10 mi
5:53 PM69 °FScattered clouds.8 mph53%30.21 "Hg10 mi
4:53 PM70 °FScattered clouds.10 mph51%30.21 "Hg10 mi
3:53 PM71 °FScattered clouds.9 mph42%30.20 "Hg10 mi
2:53 PM71 °FScattered clouds.10 mph42%30.20 "Hg10 mi
1:53 PM71 °FBroken clouds.9 mph45%30.20 "Hg10 mi
12:53 PM72 °FScattered clouds.16 mph44%30.24 "Hg10 mi
Weather by CustomWeather, © 2014

See weather overviewHow to use our weather pages